FENGYUN 1C DEB, 35173

Orbit data source: Space-Track

FENGYUN 1C DEB, 35173 is space debris in SSO originally from a launch on Mon, 10 May 1999 UTC launched from the Taiyaun Space Center, China (TSC). Fengyun 1C debris stems from the Chinese weather satellite Fengyun-1C, which was intentionally destroyed by a Chinese anti-satellite missile in 2007. This event dramatically increased the amount of space debris, with thousands of trackable fragments posing hazards to satellites and human spaceflight. The Fengyun 1C debris cloud has become a focal point in discussions about space sustainability and the need for international regulations to prevent the creation of new debris.

Loading next visibility...
Identifier
35173, 1999-025DND
Orbit
SSO
Country
Flag of CNCN / PRC
Related business
Manufacturer
Unknown
Mission
Spacecraft
Bus & Motor
Unknown
Mass
Unknown
Launch date (UTC)
1999-05-10 (26 years ago)
Launch vehicle
Unknown
Launch site
Taiyaun Space Center, China (TSC)
Object type
Payload
Rocket body
Debris
Shape & HBR
Unknown shape, 0.1 m
Radar Cross Section
Small (<0.1 m²)

Expand to show TLE details & history
Last TLE update: 2 days ago

TLE from 2 days ago
0 FENGYUN 1C DEB
1 35173U 99025DND 25309.48040443  .00001609  00000-0  15932-2 0  9998
2 35173  99.7905  22.3123 0489427 304.2718  51.2974 13.37091829653311
Epoch: 2025-11-05T11:31Z
TLE epoch observation values (Epoch: 2025-11-05T11:31:46.942Z)
Latitude
-0.00003°
Longitude
164.41425°
Altitude
904.853 km
Speed
7.506 km/s
True Right ascension
01h 29m 14s
True Declination
0° 00' 00"
Sunlit
Object was in full shadow at epoch
Visualization orbit readout
Latitude
Unknown
Longitude
Unknown
Altitude
Unknown
Speed
Unknown
Apparent Right ascension
Unknown
Apparent Declination
Unknown
Sunlit
N/A
Visualization observer readout
Local Sidereal Time
11:31:53
Azimuth
Unknown
Elevation
Unknown
Doppler factor
Unknown
Orbital elements
Apogee altitude
1,484.3 km
Perigee altitude
750.592 km
Semi-major axis
7,495.583 km
Eccentricity
0.04894
Inclination
99.7905°
RAAN
22.3123°
Arg. of periapsis
304.2718°
True anomaly
55.84322°
Mean anomaly
51.2974°
Eccentric anomaly
53.55313°
Mean motion
3.34453 °/min
Orbital period
107.64 mins
BSTAR
0.0015932
Loading maneuver chart data...
Computing Atmospheric mass density...

Documentation

Showing up to 5 results
|